DECAYED

CZ-6A DEB, 60789 (Decayed)

Orbit data source: Space-Track

CZ-6A DEB, 60789 was space debris in LEO originally from a launch on Tue, 06 Aug 2024 UTC launched from the Taiyaun Space Center, China (TSC). Debris objects in space refer to the collection of defunct objects orbiting the Earth. Examples of debris include non-operational satellites, rocket bodies, and fragments generated from explosions, collisions, or faulty payload assembly.

Not visible in the next 10 days
Identifier
60789, 2024-140FQ
Orbit
Decayed
Country
Flag of CNCN / PRC
Related business
Manufacturer
SAST
Mission
Decayed spacecraft
Bus & Motor
Unknown
Mass
Unknown
Launch date (UTC)
2024-08-06 (2 years ago)
Launch vehicle
Unknown
Launch site
Taiyaun Space Center, China (TSC)
Object type
Payload
Rocket body
Debris
Shape & HBR
Unknown shape, 0.2 m
Radar Cross Section
Medium (>0.1 m² and <1 m²)

Expand to show TLE details & history
Last TLE update: 1 year ago

TLE from 1 year ago
0 CZ-6A DEB
1 60789U 24140FQ  25055.81897105  .19422112 -82541-6  63042-2 0  9993
2 60789  89.0265 327.2652 0004091 197.0041 163.1125 16.26196516 29648
Epoch: 2025-02-24T19:39Z
TLE epoch observation values (Epoch: 2025-02-24T19:39:19.098Z)
Latitude
-0.00008°
Longitude
-122.49612°
Altitude
208.7 km
Speed
7.78 km/s
True Right ascension
21h 49m 03s
True Declination
0° 00' 00"
Sunlit
Object was in daylight at epoch
Visualization orbit readout
Latitude
Unknown
Longitude
Unknown
Altitude
Unknown
Speed
Unknown
Apparent Right ascension
Unknown
Apparent Declination
Unknown
Sunlit
N/A
Visualization observer readout
Local Sidereal Time
07:24:41
Azimuth
Unknown
Elevation
Unknown
Doppler factor
Unknown
Orbital elements
Apogee altitude
202.134 km
Perigee altitude
196.752 km
Semi-major axis
6,577.58 km
Eccentricity
0.00041
Inclination
89.0265°
RAAN
327.2652°
Arg. of periapsis
197.0041°
True anomaly
163.12611°
Mean anomaly
163.1125°
Eccentric anomaly
163.11931°
Mean motion
4.06859 °/min
Orbital period
88.48 mins
BSTAR
0.0063042
Loading maneuver chart data...
Computing Atmospheric mass density...
Loading historical data...
Loading historical data...
Loading historical data...
Loading historical data...
Loading historical data...
Loading historical data...
Loading historical data...

Documentation

Showing up to 5 results
|